Saturday, April 30, 2016
18:50 UTC
  |  Log In   |  Register Free
Airport Search:

Francis E Warren Afb Airport
(KFEW)

Francis E Warren Afb Airport Diagram
No Airport Diagram Available

FAA data valid effective Mar 31 2016 - May 26 2016 (unless otherwise noted).

 
 
 
 
 
 
 
 
 
 
 
 
 
 
Summary: Francis E Warren Afb (FEW)

Weather Summary


METAR for KFEW is not available. Closest METAR is for K82V
KFEW  (most recent observation was updatred at 30:17 UTC)
301758Z AUTO 01013G23KT 1 1/8SM -SN BR OVC008 M01/M01 A3001 RMK AO2 OVC V BKN SLP190 60003 T10071015 11007 21022 52015 $

K82V  (33.1 nm SW)   (most recent observation was updated at 30:18 UTC)
301835Z AUTO 35019G24KT 1 3/4SM -SN OVC008 00/00 A2997 RMK AO2

TAF for KFEW is not available.
KCYS  (2.9 nm SW)   (most recent observation was updatred at 30:17 UTC)
301732Z 3018/0118 36015G23KT 3/4SM -SN OVC008 FM010300 36012G20KT 1/2SM -SHSN FG OVC003 FM011200 36012KT 3/4SM BR VCSH OVC003


GlobalAir.com is loading additional information.
Current weather conditions are not available for FEW.

The nearest NOAA weather station is at CYS (2.5 nm NE from FEW)
 Current Weather at CYS
31.0 F° (-0.6 C°)
Light Snow Fog/Mist
North winds at 16.1 mph
Pressure:
29.96 in
Humidity:
89%
Wind:
North at 16.1 MPH (14 KT)
Dew Point:
28.0 F° (-2.2 C°)
Visibility:
0.75 mi
FEW NOAA Radar

Runway Summary

ID Dimensions Surface Instrument Approaches
H1 65 ft x 65 ft Bituminous Concrete, Good Condition N/A
H2 50 ft x 50 ft Bituminous Concrete N/A

Communications Summary


CTAFN/A
UNICOMN/A
ATISN/A
CLEARANCE DELIVERYN/A

Terminal Procedures Summary


No terminal procedures available for FEW





Closest Alternate Airports with Instrument Procedures

KCYS - Cheyenne Regional/Jerry Olson Field - 3.3 nm NE from FEW

KLAR - Laramie Regional - 43.8 nm NW from FEW

KFNL - Fort Collins-Loveland Municipal - 47.7 nm SW from FEW

KGXY - Greeley-Weld County - 49.7 nm SE from FEW

KIBM - Kimball Municipal/Robert E Arraj Field - 62.1 nm NE from FEW

KLMO - Vance Brand - 68.8 nm SW from FEW

KTOR - Torrington Municipal - 74.2 nm NE from FEW

KEIK - Erie Municipal - 78.3 nm SW from FEW

KBFF - Western Neb. Regional/William B. Heilig Field - 83.4 nm NE from FEW

KBJC - Rocky Mountain Metropolitan - 85.7 nm SW from FEW

Find All Airport Services Find A Hotel Find A Rental Car Find A Golf Course Find A Restaurant $100 Hamburger



FBO's on the Field
FBO Company Facility Photos Services Transportation Aviation Fuel Prices: Prices include tax
Catering Weather Repair Courtesy Rental Type 100LL JetA JetA+ MOGAS 8087
 
Add another FBO Facility Photos Catering Weather Repair Courtesy Rental Type 100LL JetA JetA+ MOGAS 8087
Services Transportation Aviation Fuel Prices: Prices include tax
There are no FBO's currently reporting fuel at FEW. List your FBO now


model-print
model-print
model-print
model-print